Location: Palau
(42.3086°N, 3.1507°E)
Time: 19:08:45
(UTC+00:00)

X-37B - Pass Details

Date: 12 March 2021
Orbit: 380 x 394 km, 45.0° (Epoch: 07 April)

Event Time Altitude Azimuth Distance (km) Brightness Sun altitude
Rises 19:51:30 0° 252° (WSW) 2,268 5.3 -22.9°
Reaches altitude 10° 19:53:34 10° 253° (WSW) 1,417 4.1 -23.2°
Enters shadow 19:55:24 32° 255° (WSW) 698 2.3 -23.6°
